sat.trackr.live / text

‹ back to catalog

GEOSCAN 6 (RS92S6)

NORAD 64879 · 2025-155D

PAYLOAD ACTIVE UNKNOWN

§ Identity

Operator
Country
CIS
Launch date
2025-07-25
Launch site
VOSTO
Launch vehicle
Mass (kg)
RCS (m²)

Purposes: comms

External: N2YO · Heavens-Above · Gunter

§ Orbital elements

Epoch: 2026-05-25T03:48:54.309024Z

Period
94.14 min
Inclination
97.4541°
Eccentricity
0.0005633
Mean motion
15.29649107 rev/d
Perigee alt
473.0 km
Apogee alt
480.7 km
Semi-major
6,855.0 km
B*
3.2232e-4
RAAN
113.6322°
Arg perigee
254.6382°
Mean anomaly
105.4236°
Rev number
7,724

§ Raw data

GEOSCAN 6 (RS92S6)1 64879U 25155D   26145.15896191  .00009189  00000+0  32232-3 0  99912 64879  97.4541 113.6322 0005633 254.6382 105.4236 15.29649107 77246

JSON: /api/v1/satellites/64879 · /tle

For live sub-satellite position, see the globe view (requires WebGL).

§ Visibility from observer

Set your observer location to see the next 7 days of passes ≥ 10°. The values pass through the URL so the page stays shareable.

No JS? Fill the form by hand. The geolocation button needs JavaScript.

§ Radio — SatNOGS DB

ModeDescriptionDownlinkUplink
GFSK Mode U - GFSK9k6 - AX.25 Beacon and Ham Payload (Geoscan framing) 436.940 MHz

1 transmitter · refreshed weekly from db.satnogs.org